{"data":{"norad_id":68814,"epoch":"2026-05-25T02:41:08.930688Z","epoch_age_seconds":75818,"freshness":"FRESH","line1":"1 68814U 26089N   26145.11190892  .00186321  00000+0  12236-2 0  9997","line2":"2 68814  97.2847 351.7657 0002169  64.8570 295.2920 15.75178359  5069","mean_motion":15.75178359,"eccentricity":0.0002169,"inclination_deg":97.2847,"raan_deg":351.7657,"arg_perigee_deg":64.857,"mean_anomaly_deg":295.292,"bstar":0.0012236,"rev_number":506,"period_min":91.418218881205,"perigee_km":342.665629705,"apogee_km":345.58174639147,"semimajor_km":6722.2606880482,"source":"CELESTRAK","updated_at":"2026-05-25T13:38:22.042538Z"}}